Precipitable_Water
0.57 0.56 0.56 0.55 0.54 0.55 0.55 0.54 0.53 0.53 0.53 0.53 0.53 0.52 0.51 0.53 0.52 0.51 0.51 0.50 0.49 0.48 0.47 0.45 0.46 0.45 0.43 0.41 0.39 0.38 0.35 0.27 0.20 0.21 0.23 0.30 0.39 0.47 0.47 0.43 0.37 0.34 0.32 0.30 0.27 0.25 0.24 0.29 0.31 0.37 0.34 0.31 0.31 0.30 0.35 0.36 0.39 0.35 0.30 0.28 0.25 0.26 0.26 0.29 0.30 0.31 0.32 0.30 0.33 0.36 0.40 0.43 0.42 0.43 0.46 0.55 0.58 0.56 0.50 0.54 0.73 0.81 0.80 0.88 0.96 1.07 1.12 1.16
0.56 0.56 0.56 0.55 0.53 0.52 0.52 0.51 0.54 0.53 0.53 0.53 0.52 0.52 0.50 0.50 0.51 0.51 0.51 0.50 0.50 0.49 0.46 0.46 0.44 0.44 0.42 0.40 0.39 0.37 0.32 0.23 0.18 0.23 0.24 0.37 0.41 0.46 0.48 0.41 0.38 0.36 0.30 0.25 0.24 0.25 0.21 0.23 0.29 0.33 0.31 0.28 0.36 0.29 0.35 0.30 0.37 0.29 0.27 0.27 0.23 0.26 0.28 0.33 0.32 0.34 0.34 0.31 0.33 0.37 0.39 0.41 0.43 0.45 0.44 0.44 0.51 0.52 0.48 0.51 0.63 0.69 0.76 0.90 0.97 1.05 1.09 1.13
0.56 0.55 0.55 0.55 0.55 0.53 0.51 0.52 0.54 0.53 0.52 0.53 0.53 0.51 0.51 0.52 0.50 0.50 0.52 0.51 0.50 0.49 0.47 0.45 0.44 0.43 0.41 0.39 0.37 0.35 0.28 0.19 0.21 0.21 0.31 0.45 0.44 0.43 0.41 0.38 0.41 0.41 0.31 0.25 0.26 0.27 0.25 0.24 0.27 0.29 0.29 0.26 0.32 0.28 0.32 0.29 0.32 0.31 0.26 0.23 0.24 0.28 0.30 0.32 0.33 0.33 0.35 0.35 0.34 0.35 0.38 0.40 0.43 0.45 0.46 0.41 0.47 0.52 0.45 0.44 0.53 0.60 0.62 0.74 0.94 1.03 1.10 1.12
0.54 0.53 0.51 0.50 0.50 0.51 0.51 0.52 0.51 0.51 0.52 0.53 0.55 0.53 0.51 0.51 0.51 0.50 0.50 0.52 0.52 0.51 0.50 0.49 0.45 0.43 0.41 0.38 0.36 0.34 0.25 0.16 0.18 0.31 0.40 0.44 0.42 0.39 0.39 0.38 0.44 0.41 0.37 0.31 0.30 0.29 0.30 0.30 0.27 0.25 0.25 0.24 0.28 0.32 0.28 0.31 0.27 0.29 0.27 0.22 0.23 0.28 0.27 0.30 0.33 0.34 0.35 0.36 0.34 0.35 0.37 0.37 0.40 0.44 0.43 0.40 0.40 0.48 0.49 0.48 0.50 0.56 0.60 0.73 0.87 1.00 1.04 1.04
0.55 0.54 0.53 0.53 0.53 0.53 0.53 0.54 0.53 0.53 0.53 0.53 0.53 0.53 0.52 0.50 0.51 0.52 0.53 0.52 0.52 0.51 0.50 0.50 0.48 0.45 0.41 0.38 0.33 0.30 0.20 0.08 0.24 0.41 0.48 0.48 0.42 0.43 0.43 0.44 0.45 0.40 0.33 0.29 0.31 0.29 0.28 0.26 0.27 0.24 0.21 0.20 0.25 0.27 0.27 0.31 0.32 0.29 0.25 0.26 0.26 0.27 0.25 0.29 0.32 0.34 0.35 0.36 0.35 0.36 0.35 0.35 0.40 0.42 0.42 0.40 0.35 0.40 0.53 0.54 0.55 0.63 0.72 0.84 0.85 0.92 1.00 1.01
0.55 0.54 0.53 0.53 0.52 0.52 0.52 0.52 0.52 0.52 0.53 0.52 0.53 0.52 0.52 0.53 0.54 0.54 0.55 0.55 0.55 0.55 0.54 0.52 0.50 0.47 0.44 0.38 0.30 0.26 0.14 0.06 0.38 0.45 0.55 0.53 0.50 0.48 0.44 0.41 0.39 0.37 0.28 0.24 0.25 0.26 0.25 0.24 0.25 0.21 0.19 0.18 0.20 0.20 0.26 0.29 0.33 0.24 0.26 0.26 0.28 0.28 0.26 0.29 0.30 0.32 0.34 0.34 0.34 0.34 0.36 0.38 0.38 0.37 0.41 0.41 0.38 0.38 0.45 0.54 0.58 0.70 0.74 0.83 0.98 1.00 0.95 0.95
0.54 0.53 0.53 0.53 0.53 0.52 0.52 0.52 0.52 0.52 0.52 0.52 0.53 0.54 0.56 0.56 0.56 0.57 0.57 0.57 0.56 0.56 0.56 0.56 0.53 0.53 0.48 0.40 0.30 0.20 0.14 0.11 0.18 0.40 0.48 0.43 0.43 0.44 0.44 0.40 0.38 0.34 0.29 0.22 0.22 0.22 0.23 0.23 0.23 0.21 0.21 0.19 0.20 0.21 0.26 0.27 0.31 0.27 0.23 0.26 0.26 0.28 0.28 0.29 0.28 0.30 0.31 0.32 0.32 0.35 0.38 0.36 0.37 0.34 0.39 0.39 0.40 0.41 0.45 0.50 0.57 0.69 0.76 0.85 0.78 0.87 0.82 0.86
0.54 0.54 0.54 0.53 0.52 0.52 0.52 0.51 0.52 0.53 0.53 0.54 0.55 0.56 0.58 0.58 0.59 0.57 0.57 0.58 0.59 0.58 0.57 0.57 0.56 0.54 0.51 0.37 0.22 0.17 0.14 0.11 0.31 0.39 0.41 0.35 0.32 0.35 0.38 0.37 0.35 0.34 0.30 0.26 0.23 0.20 0.21 0.21 0.22 0.23 0.21 0.19 0.20 0.19 0.23 0.23 0.27 0.24 0.24 0.28 0.29 0.29 0.29 0.29 0.29 0.29 0.29 0.30 0.32 0.34 0.33 0.34 0.35 0.36 0.38 0.37 0.40 0.40 0.44 0.49 0.58 0.68 0.74 0.78 0.72 0.75 0.83 0.92
0.53 0.53 0.53 0.52 0.51 0.51 0.52 0.52 0.53 0.53 0.54 0.56 0.58 0.58 0.58 0.58 0.57 0.58 0.58 0.58 0.57 0.59 0.58 0.58 0.57 0.57 0.53 0.40 0.24 0.17 0.15 0.19 0.37 0.41 0.38 0.34 0.34 0.35 0.36 0.30 0.34 0.29 0.26 0.26 0.26 0.24 0.20 0.19 0.21 0.24 0.21 0.20 0.22 0.20 0.22 0.19 0.18 0.24 0.25 0.28 0.29 0.30 0.30 0.29 0.28 0.28 0.28 0.29 0.31 0.30 0.30 0.32 0.35 0.38 0.36 0.36 0.38 0.40 0.40 0.47 0.55 0.65 0.68 0.69 0.71 0.71 0.77 0.84
0.52 0.51 0.51 0.52 0.52 0.52 0.52 0.52 0.53 0.54 0.55 0.56 0.57 0.58 0.57 0.57 0.57 0.58 0.58 0.58 0.59 0.58 0.59 0.59 0.59 0.57 0.48 0.33 0.25 0.15 0.18 0.37 0.44 0.42 0.39 0.36 0.34 0.34 0.34 0.33 0.32 0.29 0.25 0.24 0.23 0.22 0.21 0.21 0.20 0.23 0.24 0.24 0.24 0.21 0.23 0.21 0.20 0.23 0.24 0.26 0.27 0.29 0.30 0.31 0.28 0.28 0.29 0.28 0.29 0.27 0.27 0.29 0.35 0.35 0.30 0.36 0.38 0.39 0.38 0.43 0.52 0.58 0.62 0.68 0.72 0.83 0.83 0.82
0.52 0.51 0.52 0.52 0.52 0.52 0.51 0.51 0.52 0.54 0.55 0.56 0.56 0.56 0.56 0.57 0.57 0.57 0.58 0.59 0.59 0.60 0.59 0.59 0.59 0.54 0.39 0.36 0.21 0.17 0.28 0.34 0.42 0.41 0.40 0.39 0.35 0.32 0.32 0.33 0.33 0.28 0.26 0.25 0.23 0.22 0.21 0.22 0.24 0.22 0.20 0.21 0.23 0.23 0.22 0.23 0.24 0.24 0.24 0.24 0.25 0.28 0.29 0.30 0.30 0.29 0.29 0.27 0.28 0.27 0.26 0.30 0.32 0.33 0.29 0.32 0.36 0.38 0.36 0.36 0.50 0.56 0.61 0.70 0.70 0.70 0.80 0.86
0.51 0.50 0.51 0.51 0.52 0.51 0.50 0.52 0.53 0.55 0.55 0.55 0.55 0.55 0.56 0.57 0.58 0.59 0.59 0.59 0.59 0.60 0.60 0.59 0.58 0.53 0.43 0.32 0.24 0.21 0.29 0.33 0.41 0.41 0.40 0.38 0.33 0.32 0.34 0.34 0.33 0.30 0.27 0.23 0.23 0.24 0.22 0.22 0.22 0.21 0.15 0.20 0.18 0.23 0.24 0.26 0.24 0.24 0.25 0.20 0.22 0.25 0.24 0.28 0.26 0.27 0.28 0.26 0.28 0.28 0.26 0.26 0.27 0.26 0.29 0.32 0.35 0.36 0.36 0.34 0.36 0.49 0.62 0.70 0.74 0.73 0.72 0.71
0.51 0.51 0.51 0.52 0.51 0.51 0.51 0.53 0.54 0.55 0.54 0.55 0.55 0.55 0.56 0.57 0.58 0.59 0.59 0.59 0.60 0.60 0.60 0.59 0.57 0.50 0.37 0.24 0.29 0.35 0.37 0.38 0.35 0.32 0.35 0.39 0.35 0.34 0.31 0.33 0.34 0.34 0.31 0.26 0.23 0.25 0.25 0.23 0.21 0.18 0.20 0.19 0.18 0.17 0.27 0.26 0.25 0.25 0.24 0.22 0.21 0.20 0.19 0.23 0.27 0.28 0.26 0.26 0.28 0.28 0.19 0.20 0.23 0.25 0.27 0.32 0.33 0.34 0.34 0.33 0.34 0.36 0.46 0.62 0.66 0.70 0.72 0.73
0.52 0.51 0.51 0.51 0.51 0.50 0.52 0.53 0.54 0.54 0.54 0.55 0.55 0.55 0.55 0.56 0.57 0.58 0.59 0.58 0.60 0.59 0.59 0.59 0.54 0.47 0.37 0.27 0.36 0.42 0.43 0.44 0.44 0.40 0.37 0.37 0.31 0.29 0.32 0.34 0.35 0.35 0.34 0.29 0.27 0.27 0.26 0.25 0.21 0.19 0.20 0.18 0.17 0.22 0.20 0.24 0.27 0.21 0.23 0.24 0.18 0.16 0.16 0.22 0.23 0.24 0.23 0.27 0.27 0.27 0.19 0.19 0.21 0.22 0.26 0.31 0.33 0.32 0.32 0.33 0.33 0.34 0.37 0.47 0.59 0.61 0.65 0.74
0.51 0.50 0.50 0.51 0.50 0.51 0.53 0.54 0.54 0.54 0.55 0.55 0.55 0.55 0.55 0.54 0.55 0.57 0.58 0.56 0.58 0.57 0.56 0.56 0.55 0.43 0.32 0.31 0.43 0.46 0.51 0.51 0.41 0.41 0.45 0.37 0.34 0.31 0.32 0.34 0.34 0.34 0.32 0.29 0.26 0.27 0.26 0.24 0.20 0.16 0.14 0.19 0.19 0.17 0.16 0.17 0.21 0.24 0.19 0.17 0.20 0.16 0.17 0.21 0.25 0.24 0.19 0.23 0.27 0.24 0.19 0.17 0.19 0.20 0.25 0.29 0.31 0.32 0.31 0.33 0.33 0.34 0.37 0.41 0.49 0.56 0.60 0.69
0.54 0.52 0.51 0.52 0.51 0.51 0.53 0.54 0.54 0.55 0.55 0.56 0.55 0.56 0.57 0.57 0.56 0.55 0.55 0.54 0.57 0.57 0.58 0.48 0.47 0.43 0.31 0.26 0.34 0.52 0.46 0.37 0.36 0.44 0.45 0.42 0.37 0.31 0.35 0.32 0.33 0.31 0.29 0.27 0.28 0.27 0.26 0.23 0.16 0.15 0.15 0.16 0.14 0.13 0.13 0.14 0.15 0.20 0.19 0.18 0.18 0.19 0.18 0.18 0.23 0.26 0.26 0.24 0.24 0.21 0.16 0.16 0.17 0.19 0.24 0.29 0.31 0.31 0.31 0.32 0.33 0.32 0.34 0.38 0.45 0.52 0.56 0.63
0.54 0.51 0.51 0.50 0.51 0.52 0.54 0.54 0.55 0.56 0.56 0.56 0.57 0.57 0.58 0.58 0.58 0.57 0.57 0.58 0.58 0.60 0.53 0.42 0.48 0.49 0.22 0.39 0.50 0.38 0.35 0.39 0.45 0.42 0.41 0.44 0.40 0.37 0.35 0.31 0.29 0.29 0.30 0.29 0.27 0.25 0.23 0.19 0.19 0.16 0.16 0.12 0.13 0.13 0.10 0.10 0.11 0.14 0.19 0.18 0.22 0.20 0.21 0.18 0.24 0.25 0.26 0.24 0.19 0.20 0.16 0.15 0.16 0.18 0.21 0.27 0.29 0.30 0.29 0.31 0.32 0.32 0.34 0.37 0.41 0.47 0.51 0.54
0.56 0.52 0.50 0.50 0.51 0.53 0.54 0.55 0.56 0.57 0.57 0.57 0.56 0.57 0.54 0.56 0.59 0.58 0.57 0.59 0.60 0.58 0.54 0.57 0.52 0.37 0.29 0.37 0.28 0.32 0.42 0.40 0.40 0.41 0.41 0.44 0.45 0.41 0.37 0.32 0.31 0.29 0.28 0.25 0.27 0.21 0.21 0.16 0.18 0.12 0.13 0.12 0.11 0.10 0.08 0.06 0.08 0.10 0.13 0.15 0.18 0.22 0.24 0.23 0.19 0.22 0.23 0.24 0.21 0.19 0.16 0.15 0.16 0.17 0.20 0.23 0.27 0.28 0.28 0.29 0.31 0.32 0.33 0.37 0.41 0.44 0.48 0.51
0.55 0.52 0.50 0.50 0.52 0.53 0.55 0.56 0.58 0.58 0.58 0.57 0.57 0.59 0.58 0.58 0.57 0.56 0.48 0.49 0.39 0.31 0.24 0.28 0.29 0.18 0.16 0.29 0.37 0.39 0.39 0.44 0.45 0.42 0.37 0.40 0.44 0.42 0.40 0.37 0.32 0.27 0.23 0.21 0.22 0.21 0.21 0.17 0.17 0.12 0.09 0.10 0.10 0.10 0.08 0.10 0.11 0.11 0.12 0.14 0.17 0.17 0.20 0.21 0.25 0.28 0.25 0.22 0.20 0.19 0.16 0.16 0.16 0.16 0.18 0.22 0.24 0.25 0.26 0.28 0.30 0.32 0.31 0.34 0.38 0.42 0.46 0.49
0.55 0.52 0.50 0.51 0.52 0.53 0.55 0.57 0.59 0.58 0.59 0.54 0.51 0.49 0.47 0.35 0.33 0.32 0.43 0.41 0.33 0.30 0.30 0.32 0.35 0.33 0.32 0.33 0.34 0.42 0.46 0.45 0.33 0.38 0.39 0.43 0.39 0.37 0.34 0.32 0.29 0.27 0.22 0.18 0.20 0.20 0.22 0.15 0.12 0.11 0.11 0.11 0.12 0.12 0.12 0.12 0.12 0.12 0.12 0.12 0.13 0.14 0.17 0.22 0.25 0.27 0.28 0.22 0.19 0.20 0.19 0.19 0.18 0.17 0.18 0.20 0.22 0.23 0.24 0.25 0.27 0.29 0.30 0.31 0.36 0.39 0.43 0.45
0.54 0.51 0.50 0.51 0.53 0.54 0.56 0.59 0.60 0.59 0.59 0.55 0.51 0.40 0.28 0.31 0.24 0.21 0.31 0.33 0.39 0.40 0.37 0.37 0.37 0.33 0.30 0.35 0.38 0.38 0.31 0.34 0.38 0.36 0.39 0.46 0.40 0.34 0.30 0.29 0.24 0.20 0.21 0.22 0.19 0.24 0.21 0.14 0.14 0.15 0.16 0.15 0.14 0.14 0.13 0.12 0.12 0.11 0.10 0.10 0.10 0.12 0.11 0.17 0.20 0.26 0.28 0.23 0.19 0.20 0.20 0.20 0.20 0.20 0.21 0.21 0.19 0.19 0.20 0.22 0.24 0.25 0.29 0.30 0.32 0.36 0.39 0.43
0.55 0.52 0.50 0.51 0.54 0.55 0.57 0.60 0.60 0.60 0.59 0.56 0.48 0.38 0.41 0.42 0.46 0.50 0.42 0.28 0.35 0.40 0.40 0.39 0.41 0.36 0.41 0.40 0.42 0.43 0.40 0.30 0.32 0.37 0.42 0.41 0.36 0.28 0.28 0.26 0.23 0.19 0.23 0.22 0.21 0.18 0.16 0.14 0.16 0.19 0.20 0.19 0.18 0.16 0.16 0.14 0.13 0.12 0.10 0.10 0.09 0.09 0.12 0.13 0.14 0.20 0.24 0.23 0.19 0.20 0.18 0.18 0.20 0.21 0.22 0.22 0.19 0.17 0.17 0.20 0.21 0.23 0.25 0.28 0.31 0.34 0.36 0.40
0.54 0.52 0.51 0.53 0.55 0.56 0.59 0.61 0.60 0.59 0.55 0.49 0.43 0.44 0.43 0.53 0.58 0.57 0.50 0.37 0.31 0.41 0.39 0.39 0.36 0.37 0.38 0.44 0.43 0.47 0.34 0.31 0.28 0.35 0.37 0.39 0.34 0.32 0.29 0.25 0.23 0.23 0.23 0.22 0.17 0.16 0.13 0.15 0.18 0.20 0.20 0.19 0.19 0.18 0.16 0.15 0.14 0.12 0.11 0.10 0.08 0.10 0.08 0.07 0.10 0.12 0.16 0.20 0.19 0.20 0.17 0.16 0.19 0.21 0.21 0.23 0.21 0.18 0.17 0.18 0.19 0.22 0.22 0.25 0.28 0.32 0.34 0.35
0.54 0.52 0.53 0.55 0.56 0.57 0.61 0.60 0.60 0.55 0.52 0.51 0.49 0.48 0.57 0.60 0.58 0.55 0.43 0.29 0.28 0.35 0.39 0.40 0.41 0.39 0.38 0.37 0.46 0.43 0.36 0.36 0.36 0.33 0.44 0.38 0.31 0.33 0.29 0.26 0.24 0.23 0.20 0.22 0.20 0.18 0.16 0.20 0.23 0.22 0.20 0.18 0.16 0.18 0.17 0.15 0.12 0.13 0.13 0.11 0.10 0.10 0.10 0.09 0.09 0.11 0.11 0.13 0.17 0.18 0.17 0.15 0.15 0.16 0.19 0.21 0.23 0.21 0.20 0.18 0.18 0.20 0.22 0.23 0.26 0.29 0.32 0.33
0.53 0.52 0.55 0.57 0.58 0.60 0.59 0.61 0.50 0.49 0.55 0.53 0.49 0.59 0.62 0.62 0.59 0.57 0.41 0.33 0.34 0.32 0.47 0.41 0.46 0.43 0.44 0.56 0.53 0.40 0.41 0.39 0.38 0.40 0.41 0.38 0.32 0.31 0.28 0.31 0.27 0.22 0.22 0.23 0.21 0.19 0.18 0.23 0.24 0.21 0.21 0.19 0.17 0.15 0.16 0.16 0.14 0.13 0.14 0.13 0.12 0.12 0.11 0.11 0.11 0.10 0.09 0.08 0.11 0.13 0.11 0.12 0.15 0.15 0.15 0.18 0.21 0.20 0.20 0.18 0.16 0.16 0.18 0.20 0.22 0.25 0.27 0.31
0.53 0.53 0.57 0.58 0.60 0.59 0.61 0.47 0.46 0.54 0.51 0.46 0.52 0.61 0.64 0.63 0.61 0.59 0.44 0.26 0.20 0.30 0.42 0.30 0.48 0.39 0.54 0.44 0.50 0.45 0.43 0.32 0.40 0.41 0.42 0.42 0.41 0.33 0.30 0.27 0.28 0.22 0.25 0.24 0.22 0.21 0.21 0.25 0.23 0.21 0.20 0.19 0.18 0.16 0.17 0.17 0.14 0.13 0.13 0.16 0.14 0.13 0.13 0.12 0.10 0.10 0.07 0.06 0.10 0.14 0.09 0.09 0.15 0.15 0.14 0.15 0.17 0.18 0.19 0.18 0.16 0.16 0.16 0.18 0.19 0.22 0.24 0.26
0.54 0.54 0.58 0.59 0.60 0.61 0.46 0.38 0.55 0.55 0.42 0.46 0.61 0.65 0.65 0.65 0.64 0.58 0.36 0.24 0.19 0.35 0.32 0.42 0.42 0.46 0.52 0.48 0.47 0.45 0.25 0.30 0.44 0.46 0.44 0.47 0.37 0.42 0.28 0.26 0.27 0.28 0.29 0.27 0.22 0.19 0.23 0.22 0.22 0.22 0.19 0.18 0.16 0.15 0.17 0.18 0.15 0.12 0.17 0.17 0.17 0.15 0.13 0.12 0.11 0.10 0.08 0.12 0.11 0.12 0.12 0.09 0.10 0.12 0.16 0.17 0.16 0.16 0.17 0.18 0.17 0.16 0.15 0.16 0.18 0.20 0.21 0.24
0.53 0.54 0.58 0.60 0.60 0.60 0.50 0.54 0.51 0.46 0.48 0.58 0.67 0.66 0.66 0.66 0.64 0.56 0.32 0.13 0.12 0.38 0.33 0.40 0.45 0.57 0.50 0.51 0.50 0.39 0.38 0.44 0.33 0.39 0.44 0.46 0.43 0.36 0.31 0.27 0.26 0.27 0.29 0.26 0.16 0.23 0.23 0.21 0.21 0.19 0.19 0.17 0.15 0.17 0.20 0.20 0.16 0.15 0.18 0.18 0.17 0.17 0.15 0.14 0.12 0.11 0.11 0.11 0.08 0.08 0.10 0.09 0.09 0.10 0.14 0.16 0.14 0.14 0.14 0.15 0.15 0.15 0.15 0.15 0.16 0.18 0.20 0.22
0.53 0.55 0.58 0.59 0.60 0.61 0.61 0.53 0.50 0.46 0.60 0.67 0.68 0.67 0.66 0.65 0.54 0.34 0.21 0.12 0.30 0.31 0.56 0.37 0.61 0.51 0.48 0.49 0.45 0.46 0.42 0.45 0.33 0.41 0.48 0.49 0.48 0.38 0.29 0.31 0.31 0.30 0.30 0.28 0.21 0.24 0.25 0.24 0.24 0.23 0.20 0.17 0.20 0.20 0.20 0.19 0.16 0.18 0.19 0.19 0.18 0.18 0.17 0.15 0.13 0.12 0.12 0.10 0.06 0.07 0.09 0.07 0.07 0.09 0.11 0.14 0.14 0.13 0.12 0.13 0.14 0.16 0.16 0.15 0.15 0.16 0.18 0.21
0.52 0.55 0.58 0.59 0.59 0.57 0.55 0.58 0.52 0.60 0.66 0.68 0.68 0.66 0.64 0.54 0.42 0.23 0.16 0.13 0.34 0.23 0.40 0.42 0.42 0.37 0.45 0.38 0.38 0.43 0.38 0.41 0.44 0.45 0.45 0.39 0.43 0.44 0.41 0.44 0.34 0.31 0.28 0.29 0.26 0.26 0.27 0.30 0.29 0.24 0.21 0.22 0.22 0.22 0.22 0.20 0.20 0.21 0.19 0.17 0.16 0.16 0.15 0.16 0.15 0.13 0.11 0.08 0.07 0.07 0.09 0.08 0.06 0.08 0.08 0.10 0.11 0.13 0.13 0.14 0.15 0.16 0.17 0.16 0.16 0.16 0.17 0.18
0.52 0.55 0.57 0.61 0.51 0.53 0.54 0.44 0.52 0.64 0.66 0.67 0.68 0.61 0.51 0.38 0.23 0.17 0.13 0.22 0.34 0.35 0.41 0.41 0.36 0.45 0.38 0.35 0.30 0.39 0.40 0.41 0.40 0.41 0.36 0.42 0.38 0.41 0.39 0.34 0.40 0.32 0.30 0.28 0.26 0.27 0.28 0.28 0.26 0.26 0.27 0.25 0.25 0.22 0.23 0.22 0.21 0.20 0.17 0.15 0.15 0.14 0.15 0.13 0.13 0.14 0.09 0.06 0.06 0.07 0.08 0.09 0.06 0.07 0.09 0.09 0.11 0.16 0.17 0.15 0.14 0.14 0.15 0.16 0.16 0.16 0.16 0.17
0.52 0.56 0.57 0.58 0.59 0.61 0.45 0.42 0.57 0.64 0.63 0.66 0.62 0.48 0.35 0.19 0.25 0.17 0.17 0.40 0.22 0.30 0.32 0.33 0.40 0.38 0.37 0.40 0.37 0.36 0.34 0.38 0.41 0.39 0.34 0.35 0.33 0.32 0.33 0.27 0.31 0.23 0.22 0.24 0.22 0.29 0.26 0.25 0.27 0.28 0.31 0.27 0.24 0.22 0.22 0.22 0.21 0.18 0.17 0.16 0.11 0.10 0.10 0.08 0.10 0.09 0.08 0.06 0.07 0.07 0.08 0.07 0.07 0.07 0.10 0.10 0.11 0.13 0.17 0.18 0.16 0.15 0.15 0.16 0.17 0.17 0.17 0.17
0.53 0.56 0.59 0.61 0.63 0.56 0.55 0.59 0.64 0.64 0.65 0.62 0.52 0.41 0.26 0.18 0.14 0.23 0.25 0.30 0.24 0.37 0.33 0.41 0.36 0.37 0.38 0.37 0.33 0.37 0.42 0.32 0.40 0.38 0.39 0.39 0.35 0.35 0.38 0.36 0.37 0.32 0.21 0.27 0.25 0.24 0.23 0.28 0.27 0.27 0.29 0.28 0.27 0.21 0.19 0.18 0.19 0.17 0.15 0.14 0.11 0.09 0.09 0.06 0.08 0.09 0.08 0.09 0.10 0.08 0.11 0.07 0.07 0.08 0.10 0.10 0.10 0.12 0.14 0.18 0.20 0.18 0.17 0.16 0.17 0.18 0.18 0.18
0.53 0.56 0.55 0.60 0.60 0.59 0.59 0.64 0.64 0.65 0.60 0.55 0.41 0.31 0.26 0.17 0.18 0.33 0.28 0.31 0.31 0.41 0.40 0.37 0.37 0.38 0.38 0.32 0.34 0.38 0.31 0.38 0.37 0.37 0.38 0.34 0.34 0.30 0.35 0.39 0.39 0.34 0.33 0.30 0.24 0.24 0.17 0.17 0.21 0.23 0.20 0.27 0.25 0.24 0.22 0.20 0.20 0.19 0.19 0.17 0.13 0.10 0.09 0.06 0.07 0.06 0.06 0.06 0.09 0.10 0.08 0.06 0.05 0.05 0.10 0.09 0.09 0.10 0.10 0.15 0.19 0.20 0.18 0.17 0.18 0.18 0.18 0.19
0.53 0.56 0.58 0.60 0.59 0.61 0.62 0.64 0.64 0.65 0.58 0.47 0.34 0.26 0.19 0.20 0.27 0.25 0.28 0.31 0.36 0.39 0.36 0.43 0.37 0.35 0.33 0.36 0.39 0.41 0.40 0.32 0.41 0.38 0.37 0.34 0.31 0.33 0.32 0.34 0.40 0.40 0.37 0.27 0.30 0.27 0.21 0.18 0.22 0.25 0.25 0.26 0.23 0.25 0.27 0.24 0.22 0.22 0.22 0.21 0.16 0.13 0.15 0.09 0.10 0.09 0.08 0.08 0.09 0.10 0.08 0.09 0.07 0.11 0.13 0.16 0.14 0.12 0.11 0.10 0.16 0.18 0.18 0.17 0.17 0.17 0.18 0.18
0.49 0.52 0.60 0.54 0.53 0.56 0.63 0.65 0.64 0.63 0.53 0.40 0.29 0.23 0.23 0.27 0.25 0.34 0.31 0.40 0.40 0.35 0.35 0.38 0.38 0.31 0.31 0.33 0.38 0.37 0.46 0.38 0.40 0.39 0.37 0.37 0.37 0.33 0.38 0.38 0.36 0.39 0.34 0.26 0.28 0.19 0.20 0.15 0.22 0.24 0.26 0.25 0.25 0.28 0.26 0.27 0.17 0.20 0.21 0.16 0.15 0.18 0.16 0.13 0.12 0.14 0.15 0.14 0.11 0.14 0.10 0.08 0.09 0.08 0.09 0.11 0.13 0.12 0.13 0.12 0.13 0.17 0.18 0.18 0.16 0.16 0.17 0.17
0.44 0.53 0.48 0.53 0.53 0.59 0.63 0.65 0.64 0.58 0.51 0.36 0.27 0.23 0.31 0.34 0.38 0.38 0.41 0.38 0.39 0.41 0.37 0.27 0.30 0.30 0.28 0.29 0.32 0.37 0.40 0.43 0.39 0.38 0.30 0.39 0.32 0.37 0.35 0.37 0.41 0.39 0.39 0.33 0.26 0.28 0.17 0.16 0.23 0.22 0.20 0.25 0.28 0.28 0.28 0.28 0.27 0.23 0.18 0.18 0.22 0.23 0.20 0.14 0.09 0.10 0.11 0.11 0.11 0.13 0.08 0.06 0.07 0.05 0.09 0.07 0.09 0.11 0.14 0.14 0.13 0.16 0.18 0.18 0.17 0.16 0.17 0.17
0.42 0.48 0.51 0.49 0.54 0.61 0.65 0.65 0.61 0.54 0.45 0.33 0.26 0.30 0.38 0.33 0.42 0.41 0.45 0.42 0.42 0.43 0.35 0.32 0.32 0.38 0.30 0.31 0.30 0.36 0.41 0.35 0.35 0.38 0.29 0.35 0.25 0.37 0.34 0.33 0.40 0.38 0.39 0.40 0.27 0.27 0.26 0.17 0.20 0.24 0.23 0.28 0.29 0.27 0.24 0.27 0.29 0.23 0.19 0.24 0.17 0.13 0.12 0.14 0.13 0.08 0.08 0.07 0.08 0.08 0.09 0.09 0.08 0.07 0.10 0.09 0.07 0.09 0.12 0.14 0.15 0.15 0.18 0.18 0.18 0.17 0.17 0.18
0.45 0.46 0.38 0.48 0.59 0.62 0.65 0.65 0.57 0.46 0.36 0.27 0.27 0.27 0.36 0.38 0.43 0.43 0.44 0.44 0.45 0.41 0.34 0.37 0.33 0.37 0.37 0.32 0.35 0.39 0.40 0.31 0.36 0.33 0.26 0.30 0.21 0.31 0.31 0.35 0.33 0.38 0.38 0.38 0.30 0.29 0.28 0.18 0.18 0.28 0.25 0.29 0.28 0.24 0.16 0.19 0.25 0.26 0.26 0.21 0.22 0.19 0.15 0.11 0.12 0.12 0.11 0.07 0.07 0.06 0.08 0.06 0.08 0.09 0.10 0.09 0.10 0.11 0.10 0.13 0.14 0.15 0.17 0.18 0.18 0.18 0.17 0.17
0.36 0.37 0.32 0.53 0.58 0.63 0.65 0.59 0.47 0.40 0.30 0.24 0.29 0.31 0.39 0.35 0.40 0.46 0.45 0.44 0.41 0.40 0.38 0.37 0.41 0.35 0.37 0.37 0.39 0.35 0.40 0.37 0.35 0.32 0.30 0.30 0.24 0.35 0.30 0.37 0.31 0.31 0.35 0.35 0.30 0.33 0.26 0.28 0.16 0.24 0.32 0.31 0.21 0.24 0.19 0.20 0.18 0.19 0.19 0.18 0.20 0.19 0.23 0.19 0.17 0.12 0.11 0.09 0.08 0.07 0.06 0.08 0.11 0.13 0.12 0.11 0.10 0.09 0.13 0.11 0.13 0.15 0.16 0.18 0.19 0.19 0.18 0.17
0.42 0.34 0.33 0.51 0.54 0.61 0.60 0.48 0.34 0.28 0.27 0.32 0.36 0.34 0.37 0.35 0.41 0.42 0.44 0.47 0.45 0.52 0.43 0.41 0.40 0.36 0.38 0.36 0.36 0.43 0.37 0.36 0.36 0.31 0.30 0.27 0.27 0.19 0.32 0.31 0.33 0.30 0.34 0.33 0.31 0.33 0.27 0.27 0.20 0.25 0.25 0.23 0.22 0.28 0.26 0.24 0.24 0.21 0.19 0.16 0.16 0.15 0.14 0.11 0.11 0.14 0.11 0.10 0.08 0.07 0.06 0.10 0.13 0.14 0.15 0.15 0.14 0.09 0.10 0.13 0.13 0.13 0.16 0.18 0.19 0.19 0.19 0.18
0.30 0.23 0.27 0.44 0.51 0.57 0.45 0.27 0.30 0.35 0.28 0.26 0.27 0.34 0.33 0.43 0.40 0.40 0.44 0.47 0.47 0.43 0.53 0.47 0.46 0.43 0.41 0.40 0.41 0.41 0.38 0.34 0.34 0.32 0.32 0.25 0.30 0.29 0.34 0.40 0.38 0.36 0.33 0.28 0.28 0.36 0.34 0.33 0.28 0.22 0.23 0.24 0.27 0.32 0.34 0.32 0.30 0.28 0.25 0.20 0.21 0.19 0.18 0.13 0.09 0.10 0.11 0.10 0.11 0.11 0.10 0.08 0.12 0.12 0.16 0.18 0.19 0.14 0.08 0.11 0.13 0.14 0.16 0.17 0.19 0.20 0.20 0.19
0.27 0.27 0.41 0.40 0.49 0.52 0.39 0.24 0.30 0.26 0.24 0.29 0.37 0.38 0.40 0.39 0.39 0.43 0.43 0.45 0.42 0.48 0.46 0.45 0.43 0.41 0.43 0.41 0.41 0.40 0.40 0.33 0.33 0.29 0.31 0.32 0.30 0.34 0.39 0.41 0.44 0.42 0.41 0.35 0.36 0.37 0.40 0.30 0.25 0.25 0.29 0.31 0.33 0.36 0.37 0.36 0.34 0.30 0.30 0.29 0.24 0.20 0.18 0.15 0.13 0.15 0.11 0.09 0.09 0.09 0.08 0.08 0.10 0.13 0.19 0.25 0.25 0.20 0.15 0.09 0.09 0.14 0.17 0.19 0.20 0.20 0.20 0.20
0.29 0.31 0.33 0.40 0.44 0.52 0.31 0.14 0.16 0.20 0.25 0.30 0.33 0.34 0.39 0.38 0.40 0.40 0.40 0.43 0.42 0.42 0.42 0.43 0.46 0.49 0.42 0.47 0.44 0.37 0.43 0.28 0.34 0.32 0.30 0.34 0.29 0.41 0.43 0.44 0.46 0.40 0.39 0.36 0.32 0.40 0.29 0.31 0.27 0.21 0.21 0.23 0.26 0.31 0.32 0.36 0.35 0.30 0.28 0.30 0.29 0.25 0.22 0.19 0.19 0.22 0.15 0.14 0.11 0.09 0.07 0.08 0.11 0.18 0.24 0.29 0.26 0.26 0.26 0.21 0.18 0.14 0.18 0.20 0.21 0.21 0.21 0.21
0.31 0.36 0.31 0.32 0.44 0.45 0.22 0.23 0.20 0.19 0.23 0.25 0.28 0.29 0.32 0.36 0.43 0.42 0.41 0.41 0.47 0.45 0.44 0.41 0.45 0.47 0.45 0.47 0.42 0.43 0.44 0.37 0.29 0.35 0.34 0.33 0.31 0.40 0.44 0.46 0.49 0.43 0.45 0.46 0.43 0.46 0.33 0.31 0.28 0.19 0.15 0.14 0.15 0.16 0.18 0.22 0.26 0.31 0.32 0.29 0.29 0.26 0.22 0.19 0.14 0.14 0.13 0.17 0.17 0.14 0.11 0.12 0.16 0.20 0.24 0.26 0.28 0.29 0.32 0.37 0.33 0.22 0.19 0.21 0.22 0.22 0.22 0.22
0.26 0.19 0.21 0.22 0.34 0.34 0.28 0.31 0.26 0.23 0.22 0.24 0.25 0.28 0.32 0.32 0.39 0.44 0.43 0.42 0.47 0.47 0.46 0.45 0.48 0.50 0.44 0.42 0.37 0.36 0.35 0.41 0.33 0.30 0.32 0.29 0.32 0.38 0.44 0.46 0.46 0.44 0.46 0.49 0.49 0.43 0.33 0.34 0.32 0.28 0.24 0.22 0.24 0.27 0.34 0.34 0.32 0.25 0.26 0.26 0.25 0.26 0.24 0.20 0.17 0.14 0.11 0.14 0.16 0.16 0.13 0.13 0.16 0.18 0.24 0.28 0.32 0.31 0.30 0.34 0.36 0.32 0.23 0.23 0.22 0.22 0.22 0.22
0.36 0.23 0.22 0.16 0.25 0.30 0.23 0.26 0.24 0.25 0.23 0.29 0.22 0.27 0.27 0.32 0.36 0.38 0.44 0.38 0.45 0.45 0.45 0.46 0.45 0.40 0.38 0.38 0.33 0.32 0.35 0.34 0.36 0.33 0.32 0.31 0.34 0.38 0.45 0.46 0.47 0.45 0.46 0.47 0.52 0.44 0.36 0.30 0.32 0.32 0.32 0.31 0.33 0.32 0.35 0.35 0.30 0.29 0.26 0.24 0.24 0.23 0.22 0.19 0.16 0.12 0.15 0.16 0.12 0.15 0.18 0.20 0.18 0.25 0.29 0.33 0.34 0.35 0.37 0.39 0.39 0.36 0.31 0.24 0.22 0.22 0.23 0.23
0.26 0.29 0.33 0.29 0.21 0.16 0.17 0.18 0.24 0.24 0.28 0.30 0.25 0.30 0.29 0.31 0.34 0.31 0.39 0.43 0.45 0.47 0.40 0.44 0.44 0.41 0.40 0.36 0.35 0.28 0.31 0.31 0.31 0.28 0.34 0.35 0.33 0.37 0.37 0.46 0.45 0.47 0.47 0.46 0.50 0.40 0.34 0.29 0.34 0.34 0.33 0.36 0.37 0.35 0.36 0.35 0.34 0.29 0.26 0.23 0.20 0.20 0.19 0.16 0.14 0.16 0.18 0.15 0.11 0.16 0.26 0.24 0.26 0.31 0.37 0.38 0.41 0.39 0.40 0.43 0.46 0.46 0.40 0.31 0.26 0.24 0.23 0.23
0.37 0.36 0.33 0.35 0.21 0.23 0.22 0.23 0.25 0.24 0.24 0.27 0.25 0.28 0.27 0.31 0.32 0.35 0.36 0.37 0.41 0.42 0.44 0.36 0.38 0.40 0.40 0.41 0.37 0.31 0.32 0.26 0.26 0.34 0.33 0.32 0.33 0.34 0.32 0.37 0.45 0.49 0.48 0.44 0.45 0.46 0.39 0.32 0.35 0.35 0.34 0.35 0.35 0.35 0.35 0.32 0.31 0.28 0.24 0.22 0.20 0.18 0.17 0.17 0.16 0.18 0.21 0.21 0.23 0.27 0.29 0.30 0.34 0.38 0.42 0.44 0.47 0.49 0.50 0.54 0.52 0.43 0.36 0.30 0.26 0.24 0.24 0.25
0.35 0.32 0.27 0.33 0.29 0.25 0.24 0.24 0.24 0.23 0.21 0.26 0.21 0.25 0.29 0.32 0.32 0.35 0.39 0.38 0.35 0.39 0.47 0.41 0.40 0.43 0.43 0.42 0.40 0.34 0.36 0.38 0.36 0.32 0.37 0.37 0.34 0.37 0.34 0.34 0.36 0.46 0.47 0.42 0.42 0.47 0.40 0.31 0.39 0.38 0.34 0.30 0.30 0.32 0.31 0.29 0.28 0.24 0.23 0.23 0.22 0.23 0.22 0.22 0.21 0.24 0.27 0.27 0.30 0.31 0.31 0.31 0.40 0.46 0.45 0.49 0.54 0.60 0.60 0.55 0.48 0.43 0.39 0.32 0.28 0.27 0.26 0.27
0.50 0.48 0.43 0.31 0.23 0.23 0.24 0.22 0.21 0.21 0.20 0.22 0.21 0.26 0.30 0.34 0.33 0.37 0.37 0.44 0.40 0.38 0.42 0.40 0.43 0.44 0.46 0.45 0.43 0.41 0.45 0.45 0.45 0.44 0.46 0.44 0.34 0.41 0.36 0.36 0.43 0.36 0.41 0.41 0.43 0.45 0.43 0.35 0.41 0.39 0.31 0.28 0.31 0.29 0.28 0.28 0.28 0.25 0.24 0.25 0.25 0.25 0.24 0.26 0.26 0.28 0.28 0.27 0.30 0.32 0.29 0.31 0.41 0.44 0.50 0.55 0.56 0.59 0.57 0.52 0.47 0.40 0.38 0.34 0.30 0.30 0.30 0.32
0.55 0.55 0.51 0.40 0.24 0.26 0.21 0.22 0.23 0.20 0.16 0.22 0.24 0.27 0.28 0.32 0.37 0.39 0.33 0.42 0.45 0.46 0.45 0.45 0.46 0.45 0.43 0.44 0.43 0.45 0.50 0.51 0.51 0.53 0.55 0.55 0.55 0.51 0.50 0.48 0.46 0.40 0.38 0.38 0.44 0.41 0.41 0.38 0.35 0.35 0.30 0.27 0.32 0.32 0.28 0.30 0.30 0.25 0.24 0.27 0.30 0.30 0.29 0.31 0.32 0.34 0.35 0.33 0.31 0.29 0.29 0.40 0.43 0.49 0.49 0.52 0.56 0.62 0.60 0.56 0.48 0.42 0.39 0.36 0.34 0.33 0.34 0.36
Wind_Speed
27 28 28 29 29 29 29 30 30 29 29 29 29 28 28 27 27 26 26 25 25 24 24 23 23 23 23 23 24 24 24 23 23 24 25 26 27 28 29 30 30 30 31 31 32 34 34 35 35 34 34 34 35 35 35 35 34 33 33 35 37 36 35 33 32 30 28 27 25 25 25 24 22 21 22 22 21 21 19 18 18 17 16 15 15 17 18 18
28 29 29 30 30 30 30 30 30 30 30 30 29 29 28 28 27 27 26 26 26 25 25 24 24 24 24 24 24 24 23 23 23 23 23 24 25 26 27 28 29 29 30 30 31 32 33 35 35 35 35 35 35 35 35 36 36 35 34 37 39 37 35 34 33 31 29 28 26 26 26 25 24 22 21 22 24 24 20 19 20 18 17 16 16 17 19 18
29 30 30 31 31 31 31 31 31 31 31 30 30 29 29 28 28 27 27 27 26 26 26 26 25 25 25 25 25 24 23 23 22 21 21 22 23 24 25 26 27 28 28 30 31 31 32 34 35 35 35 35 35 35 36 36 36 37 36 38 39 36 35 35 34 33 32 29 26 27 27 26 25 24 22 22 25 26 23 20 20 21 20 18 18 19 19 20
30 31 31 31 32 32 32 32 32 32 31 30 30 29 29 29 28 28 27 27 27 27 27 27 26 26 26 26 26 24 23 22 21 21 20 21 22 23 24 24 25 26 27 29 30 31 32 32 33 34 34 35 36 35 36 37 36 36 37 39 37 35 36 36 36 35 34 32 30 28 28 27 26 24 24 23 24 27 27 23 21 22 21 19 20 20 20 20
31 32 32 32 32 33 33 33 32 32 31 30 30 30 30 29 29 28 28 27 27 27 27 27 27 26 26 26 25 24 22 21 21 21 21 21 21 22 23 23 24 24 26 27 28 30 30 31 32 32 34 35 35 36 36 37 37 36 38 38 36 35 36 36 37 36 35 34 32 30 30 29 27 26 26 26 25 25 28 26 23 23 21 19 20 21 20 21
32 32 33 33 33 34 33 33 32 32 31 31 31 30 30 30 29 29 28 28 27 27 27 26 26 26 25 25 24 22 21 22 22 21 21 21 21 21 22 23 23 23 24 25 26 28 29 30 31 31 32 34 35 36 36 37 37 37 37 36 36 36 36 36 36 37 36 35 34 32 31 30 28 28 28 28 28 25 26 28 26 25 22 20 20 21 22 24
33 33 34 34 34 34 34 33 33 32 32 31 31 31 31 31 30 29 29 28 27 26 25 25 24 24 23 23 22 20 21 22 22 21 22 21 21 21 21 21 22 23 23 23 24 26 27 28 30 31 32 33 34 36 36 36 36 37 37 35 36 36 37 37 36 36 36 37 36 32 31 31 31 31 29 29 30 26 25 27 27 26 24 21 21 22 23 25
33 34 34 35 35 34 34 34 33 33 32 32 32 32 31 31 30 29 28 27 26 25 24 23 22 22 21 20 19 19 21 22 22 21 21 21 21 21 21 21 21 22 22 22 23 25 26 26 28 30 31 32 33 34 35 35 35 37 37 36 36 37 38 37 36 37 36 37 36 32 32 34 34 32 30 31 30 28 26 27 27 28 27 24 22 22 23 25
34 35 35 35 35 35 34 34 33 33 33 33 33 33 32 31 30 29 27 25 24 23 22 21 20 20 19 18 17 18 20 20 20 20 20 20 21 21 21 21 21 21 21 22 23 24 25 25 27 28 31 32 32 33 33 34 35 36 37 37 37 37 37 37 37 37 36 36 35 34 35 35 35 32 31 33 32 29 28 28 28 29 30 27 24 23 23 25
35 35 36 36 35 35 35 34 34 34 34 34 33 33 32 31 29 27 25 23 22 21 20 19 19 18 17 16 15 16 17 17 18 19 19 20 21 21 21 21 21 21 22 22 23 24 25 25 26 27 29 31 31 33 32 33 35 36 37 38 38 38 37 36 37 37 36 36 35 36 35 33 33 33 34 36 34 32 30 29 29 31 33 31 26 24 24 25
36 36 36 36 36 35 35 35 35 34 34 34 34 33 31 29 27 25 23 22 21 20 19 18 18 17 16 16 15 16 16 16 17 18 19 19 20 21 21 21 21 21 22 22 23 24 25 26 26 26 27 29 30 32 32 33 34 35 36 37 38 38 38 37 37 37 35 36 37 36 35 33 33 35 37 37 35 34 33 32 30 30 34 34 30 26 25 25
36 37 36 36 36 36 35 35 35 35 35 34 33 32 30 28 25 24 23 21 20 19 18 18 17 16 16 16 16 17 16 16 17 18 18 19 20 20 21 21 22 22 22 22 23 24 24 25 25 25 26 27 29 30 31 33 34 35 35 35 36 36 37 39 37 37 36 35 35 34 35 36 36 38 40 38 35 35 36 35 33 32 32 34 33 29 27 26
37 37 37 37 36 36 36 36 35 35 35 34 32 31 29 27 25 24 22 21 19 18 17 17 16 15 15 15 16 16 16 16 17 17 18 18 19 20 20 21 21 21 21 22 23 23 24 25 25 26 26 26 27 29 30 32 33 34 34 35 35 35 37 39 38 37 36 36 35 34 36 39 39 42 41 37 35 36 36 37 36 34 33 34 35 32 29 28
37 37 37 37 37 36 36 36 35 35 34 33 32 30 28 26 24 22 21 19 18 17 16 15 14 14 14 15 15 14 15 14 14 14 15 16 17 18 18 19 19 20 20 21 22 22 23 24 24 25 26 26 27 28 28 29 31 32 34 34 35 35 36 37 37 37 37 36 35 34 37 40 40 42 41 37 37 37 37 38 36 35 34 34 35 35 32 30
38 37 37 37 37 37 36 36 36 35 34 32 31 29 26 24 22 20 18 17 16 15 14 13 13 13 14 14 13 13 13 11 11 12 12 13 14 15 16 17 18 18 19 20 21 21 22 22 23 24 26 26 26 26 27 28 29 30 32 33 34 36 35 34 35 36 37 36 35 35 38 40 41 42 39 37 38 38 37 38 37 35 34 33 33 34 33 31
38 38 38 37 37 37 36 36 36 35 33 31 30 27 24 21 20 18 16 15 14 13 12 12 12 12 12 12 12 11 10 10 11 12 12 12 13 14 14 15 16 16 17 18 19 20 21 21 22 24 25 25 25 25 26 27 29 29 31 32 32 33 34 33 34 35 36 35 36 37 39 40 40 39 36 36 39 39 38 38 38 36 35 35 34 34 33 31
39 38 38 38 37 37 36 36 35 34 32 30 28 25 22 20 18 16 15 14 13 12 11 11 11 11 12 12 11 10 10 11 11 12 12 12 12 12 13 13 14 15 16 16 17 18 19 20 21 23 23 24 25 25 26 28 30 29 29 30 31 31 31 32 33 34 34 35 37 39 41 42 39 36 33 35 38 40 40 39 39 38 37 37 36 35 34 33
39 39 38 38 37 37 36 36 34 33 31 29 26 23 20 19 17 15 14 14 13 12 11 11 10 10 10 10 10 9 10 11 11 11 11 11 11 11 12 12 13 14 14 15 16 17 18 19 20 21 22 23 24 24 26 28 28 28 29 29 30 30 31 31 31 32 31 33 36 38 42 42 40 38 34 33 35 39 41 41 41 40 39 38 38 37 36 34
39 39 39 38 37 37 36 35 34 31 29 27 25 21 19 19 17 15 15 15 12 11 11 10 9 9 9 10 10 10 11 11 11 11 10 10 11 11 12 12 13 13 14 15 16 16 17 18 18 20 21 22 24 25 26 27 26 26 27 28 28 29 31 32 31 30 29 32 36 38 40 40 39 39 37 34 34 37 40 40 41 42 40 39 39 39 38 36
39 39 39 38 37 37 36 34 32 30 28 25 23 20 19 19 16 14 16 14 11 11 12 11 10 10 11 11 10 11 12 11 11 11 10 11 11 11 12 12 12 12 13 14 15 16 16 18 19 21 21 22 23 24 25 26 26 25 26 26 27 28 30 30 31 30 28 32 36 37 38 39 39 39 37 37 37 37 38 39 40 42 42 40 41 41 40 39
40 39 39 38 37 36 35 33 31 29 26 23 22 19 17 18 15 14 16 14 11 12 12 10 9 9 10 10 9 9 9 10 10 11 10 10 10 11 12 12 11 12 14 14 15 15 15 17 19 21 22 22 23 23 24 25 25 26 26 27 27 28 29 29 30 31 29 32 36 36 37 38 39 39 38 37 38 39 40 40 40 42 43 41 42 42 42 40
40 39 39 38 37 36 34 32 30 27 24 21 21 18 16 16 14 13 14 12 12 11 9 8 7 7 8 8 8 7 7 8 9 10 10 10 10 11 11 11 11 13 14 13 14 14 15 17 19 20 21 21 22 23 24 24 25 26 26 27 28 29 29 29 29 29 29 32 35 35 38 39 39 39 39 38 39 40 42 42 42 42 43 42 42 42 42 41
40 40 39 38 36 35 32 31 29 25 22 21 20 18 17 16 15 14 12 10 11 9 8 7 6 6 7 6 6 5 6 8 9 9 9 9 10 10 10 10 11 12 13 12 14 14 15 17 18 19 19 19 22 23 23 24 25 26 26 27 29 29 28 29 29 29 30 32 35 36 38 40 40 39 39 39 40 40 41 42 43 43 43 43 42 42 43 43
40 40 38 37 36 34 31 30 27 23 21 20 19 18 18 17 15 14 12 9 9 9 8 7 7 7 7 7 6 6 7 8 9 9 9 9 9 10 10 10 10 11 12 13 13 14 16 17 17 16 17 19 21 22 23 25 26 27 27 27 28 28 28 30 29 28 29 31 34 35 37 39 40 40 40 39 39 40 40 41 43 43 44 43 43 43 43 43
40 39 38 36 34 33 31 28 25 23 21 20 19 18 18 17 15 13 11 8 8 9 8 8 8 7 7 8 7 7 9 10 9 9 10 10 9 9 10 10 10 11 13 12 13 15 16 16 15 15 18 19 20 21 23 25 26 26 28 29 29 28 29 30 28 27 28 30 31 30 33 37 37 39 40 39 38 39 40 41 43 44 44 43 43 43 43 43
40 39 37 35 34 32 29 26 24 23 21 19 19 19 18 17 15 12 9 7 8 9 9 9 9 8 8 9 8 9 10 10 10 12 12 12 11 10 10 11 11 12 12 12 12 14 15 15 16 17 19 19 20 22 22 23 24 25 27 28 28 28 28 29 29 28 28 30 30 28 30 34 34 37 39 38 39 40 40 40 42 43 44 44 44 44 44 43
40 38 36 34 33 31 28 25 24 22 20 20 20 19 18 16 14 11 9 8 9 10 10 10 9 9 9 9 9 10 11 12 13 13 12 11 11 11 11 12 11 12 12 12 13 13 13 13 14 16 18 19 20 21 22 22 22 24 26 26 25 26 27 28 28 29 30 30 31 31 31 32 35 38 38 37 38 40 40 41 42 43 44 44 44 45 44 44
40 37 35 34 32 30 27 25 24 22 20 21 20 19 18 15 12 10 8 8 9 10 10 9 9 9 10 11 11 12 13 14 13 12 10 10 11 11 12 13 12 13 13 13 15 15 13 13 14 15 16 18 19 20 22 22 23 25 25 24 25 26 26 27 27 28 29 28 31 34 32 32 35 37 36 36 39 40 41 42 42 42 44 44 44 45 45 44
39 36 34 33 31 29 26 24 23 21 21 21 21 19 17 14 11 10 8 8 11 11 9 9 10 10 12 13 13 13 13 13 12 13 12 12 12 11 13 14 13 14 14 14 16 16 14 15 15 15 15 17 18 19 20 21 23 24 23 22 23 24 25 26 26 27 27 28 33 36 33 32 34 35 36 37 40 42 42 42 41 40 42 43 44 44 44 44
39 35 33 32 30 28 26 24 22 22 21 22 21 19 16 13 11 11 10 10 12 11 9 10 10 11 13 14 13 12 13 13 13 14 13 12 12 11 12 13 12 13 15 15 16 16 16 16 16 15 16 16 17 18 19 21 22 22 22 22 22 23 24 25 26 26 26 30 36 38 34 33 34 34 37 39 39 40 40 40 39 39 40 42 43 43 44 44
38 34 32 30 28 27 26 24 23 22 22 22 21 19 15 12 11 10 10 11 11 10 10 10 11 12 13 13 13 13 13 14 13 12 12 12 12 11 11 12 12 13 15 17 17 17 16 16 17 17 17 16 16 17 19 20 21 21 22 22 22 23 23 24 26 26 27 31 36 37 35 34 36 36 36 38 38 37 38 39 39 39 40 41 41 42 43 43
37 34 31 29 27 26 25 24 23 23 22 22 21 18 13 11 12 11 11 12 10 9 11 11 12 13 13 13 13 14 14 13 12 10 10 11 11 12 12 13 13 14 16 17 17 17 18 18 18 18 19 18 18 18 19 19 21 21 22 22 22 22 22 23 25 26 30 33 32 31 32 35 39 39 36 37 37 37 37 38 38 39 39 39 40 41 41 42
36 33 30 28 27 26 25 24 24 23 23 22 19 15 12 11 12 12 12 11 9 9 11 12 13 14 14 14 13 13 12 12 10 9 9 10 12 13 14 15 15 15 16 15 15 15 16 17 17 18 20 20 20 20 20 20 21 22 22 23 23 22 21 24 26 26 30 33 32 30 30 32 37 38 38 40 40 39 39 39 38 39 39 40 39 39 40 41
35 32 29 27 27 26 25 24 24 24 23 21 17 14 13 12 11 12 12 10 10 11 12 12 14 14 13 12 12 11 11 11 10 10 11 11 12 14 15 16 16 17 17 15 15 14 15 16 15 16 18 19 21 22 21 20 21 23 23 22 24 24 23 24 25 26 29 30 29 30 30 31 33 33 34 36 38 40 41 41 41 40 40 40 40 39 39 39
33 30 28 27 27 26 25 23 23 23 22 20 16 14 13 12 12 13 11 10 11 12 13 13 13 13 12 11 12 12 11 12 12 12 13 13 14 15 15 15 15 16 15 14 13 12 14 15 15 15 16 16 18 20 19 20 21 23 22 23 25 25 24 23 24 26 26 25 26 28 30 33 34 33 32 31 32 36 39 41 42 42 41 40 40 40 39 39
31 29 27 27 27 26 25 22 22 22 21 18 15 14 13 12 12 12 11 12 12 13 15 14 12 12 11 11 13 13 12 14 14 14 14 14 15 16 14 14 13 12 12 11 11 10 11 13 12 12 13 13 15 16 18 21 21 21 23 25 25 23 22 23 24 25 23 23 25 28 32 34 33 34 35 33 32 32 34 37 41 42 41 40 40 40 39 38
29 28 27 27 28 26 24 22 21 22 19 16 15 14 13 12 12 11 12 13 13 13 14 14 12 10 11 12 13 15 15 16 15 15 15 14 14 13 12 12 10 10 10 10 10 10 9 11 11 9 10 11 12 13 16 20 20 20 22 23 21 20 23 24 24 24 22 23 25 28 32 33 31 31 32 32 33 33 32 33 36 39 40 39 40 40 39 38
28 27 26 28 28 25 23 22 22 21 18 15 15 14 13 13 12 12 13 14 14 13 13 13 12 10 11 13 15 16 17 16 15 15 13 11 10 9 8 8 6 6 8 8 8 8 7 9 11 9 9 9 8 10 14 17 18 19 20 21 21 22 24 25 25 24 24 26 26 28 32 33 33 33 30 30 32 33 33 32 33 36 38 38 39 39 39 38
28 26 26 28 28 25 23 22 22 20 17 15 15 14 13 13 13 13 15 15 14 13 13 13 12 12 13 14 16 17 17 16 15 13 10 8 9 8 7 5 2 3 6 6 6 7 7 8 9 9 8 7 8 10 13 14 16 18 19 21 22 22 22 24 25 23 23 25 26 27 30 31 33 33 31 31 32 32 33 33 32 34 36 37 38 38 38 37
27 26 26 28 27 25 23 22 21 19 16 15 14 13 13 14 14 15 16 15 13 13 13 13 13 13 14 14 15 17 16 15 14 11 8 7 8 8 5 3 2 2 4 5 6 7 7 8 9 9 7 7 9 11 13 14 16 18 19 21 22 22 21 21 23 24 23 23 24 26 28 30 30 29 30 32 32 32 33 33 33 33 34 36 37 37 37 36
27 26 26 27 27 24 23 22 20 19 17 15 14 13 13 15 15 16 17 15 13 13 13 14 13 14 14 15 15 15 16 16 13 9 7 7 6 7 5 3 3 4 4 5 7 7 8 9 9 9 9 9 10 10 12 14 16 17 19 21 22 23 23 20 22 26 26 25 25 25 27 29 29 28 29 29 29 31 32 32 32 33 34 35 36 36 36 36
27 26 26 28 26 24 23 21 19 19 17 16 16 15 14 15 16 16 16 15 14 13 14 13 13 14 14 14 14 14 16 15 11 7 7 7 6 6 6 5 4 4 4 6 8 8 7 8 10 11 11 12 11 10 11 12 14 15 18 20 21 23 24 24 23 24 26 27 27 26 26 28 28 28 27 26 27 29 31 30 30 32 33 34 34 35 35 34
27 26 26 28 26 23 22 21 20 19 17 16 17 16 15 15 15 16 16 16 14 13 14 13 13 13 13 13 13 14 14 13 8 6 7 7 7 7 7 6 5 6 6 6 7 6 6 8 9 11 11 12 12 12 13 13 13 15 17 19 22 24 25 25 23 22 22 25 26 26 26 26 25 25 25 23 23 25 28 29 30 31 31 31 32 33 33 33
28 26 26 28 26 22 21 20 19 19 18 17 16 16 15 15 15 16 16 15 15 14 15 14 12 12 12 12 12 12 12 10 8 7 7 7 7 8 8 8 7 7 6 6 5 5 6 7 8 9 9 10 11 11 12 15 16 18 18 19 23 26 26 25 24 22 20 22 25 25 24 24 23 22 22 20 19 21 25 28 30 30 30 30 31 32 33 33
28 26 26 28 26 22 21 20 18 18 18 17 16 15 15 14 15 17 16 15 15 15 16 14 13 12 12 13 13 11 10 9 8 8 8 8 8 9 9 8 7 6 6 7 5 5 7 7 7 8 8 9 10 9 10 12 15 17 18 19 22 26 27 26 24 24 22 21 23 23 23 24 23 20 20 19 17 20 23 25 26 29 29 30 31 31 32 32
27 26 27 27 25 23 22 21 20 19 18 17 16 15 15 14 15 17 16 14 14 16 16 14 13 12 12 14 15 13 11 9 8 9 10 10 9 9 9 9 8 7 8 8 5 4 7 8 9 10 12 13 14 12 10 10 12 15 17 18 20 25 27 25 23 24 23 19 20 24 25 24 22 20 19 18 17 20 22 22 23 25 28 29 30 30 31 32
26 26 26 26 25 23 23 22 21 20 18 17 16 15 15 16 16 16 15 14 15 16 15 13 12 13 14 16 15 13 12 11 9 10 11 11 9 9 10 11 9 7 7 6 4 4 7 9 9 11 15 17 17 15 12 11 13 15 16 16 19 23 26 26 24 23 21 18 20 24 23 21 21 19 17 16 17 19 21 21 22 23 25 26 26 28 30 31
26 25 25 25 24 22 22 22 22 21 19 17 15 15 16 16 16 16 15 14 15 16 15 13 13 14 15 16 15 13 13 13 10 10 11 10 9 9 9 9 8 7 6 3 3 4 7 10 10 11 15 17 16 15 12 10 11 13 15 15 18 22 25 26 25 23 20 20 21 19 17 17 19 17 16 16 16 18 20 20 21 22 23 23 24 26 27 29
26 25 25 25 24 22 21 22 22 20 19 17 15 15 15 16 16 16 14 14 15 14 13 14 15 16 16 16 15 13 13 14 13 12 11 10 9 8 8 7 6 8 7 5 5 6 7 10 10 10 13 14 10 7 6 6 7 11 15 16 17 20 22 23 23 22 20 20 19 17 16 17 18 16 16 16 16 18 20 20 20 21 21 22 24 25 26 28
26 25 25 25 24 22 22 21 21 19 18 17 16 15 15 14 16 17 15 13 13 13 13 15 16 17 16 15 14 13 12 13 14 14 13 11 9 7 7 6 5 6 7 6 6 7 7 9 10 9 11 10 5 3 7 8 9 11 14 16 18 19 19 20 19 18 17 18 18 18 18 17 15 15 15 15 16 17 18 19 19 21 21 22 23 25 26 27
25 25 25 25 24 23 22 21 20 18 17 17 15 15 14 13 15 17 15 12 11 12 14 16 17 16 15 14 13 12 13 14 14 15 13 12 10 8 6 5 5 6 7 6 6 7 6 8 10 9 9 8 5 7 11 12 11 10 12 16 18 19 18 17 16 16 16 17 17 17 18 17 14 14 13 14 15 16 17 18 18 19 21 22 22 23 25 26
26 25 24 23 23 23 22 21 20 18 17 16 16 15 14 13 15 17 15 12 11 12 14 15 16 15 14 15 15 15 16 17 17 16 14 12 10 8 6 5 5 6 7 7 7 6 6 7 9 9 7 5 4 7 11 12 10 8 11 15 17 18 17 14 13 15 16 15 15 16 17 17 14 12 12 13 15 16 16 17 18 18 20 21 21 22 22 24
Wind_Direction
335 334 333 332 331 330 329 327 326 324 322 320 318 316 314 311 309 306 303 301 298 296 292 289 286 284 282 281 279 279 277 271 265 260 254 248 244 241 241 242 243 244 243 241 240 239 237 236 236 236 232 230 231 230 230 230 229 229 230 232 233 232 232 230 229 230 230 229 224 222 222 223 226 226 226 227 224 226 229 225 222 221 218 216 213 208 202 202
335 334 333 332 331 329 328 327 326 324 322 320 318 316 314 311 308 306 302 300 297 295 292 288 286 284 282 281 280 279 276 270 265 260 254 248 244 243 242 243 243 243 243 240 239 238 236 235 235 235 232 230 231 230 229 229 228 229 230 232 234 232 232 231 230 231 230 228 224 222 223 223 224 224 225 226 223 223 227 228 225 222 218 215 213 210 207 206
335 334 333 332 331 329 328 327 325 324 322 320 319 316 314 311 308 305 303 300 297 294 291 288 286 284 283 280 280 279 274 269 263 258 255 248 243 244 244 244 244 244 242 240 238 236 235 235 234 233 232 230 231 229 229 229 229 230 231 233 235 233 233 232 230 230 230 228 224 223 225 224 224 224 225 227 224 221 220 223 223 221 220 218 216 212 211 211
336 334 333 332 331 330 329 327 325 324 322 321 319 317 314 311 309 305 303 300 297 294 291 289 286 284 283 280 279 277 271 266 258 254 255 249 245 245 246 246 245 245 243 240 238 236 236 234 233 232 231 231 231 230 229 229 230 231 231 233 235 232 234 234 231 230 230 229 226 223 225 226 225 224 225 225 225 224 220 221 223 222 222 220 216 211 212 212
336 335 334 333 331 330 329 328 326 324 323 321 319 317 314 312 309 306 303 300 298 295 292 290 287 285 283 280 278 273 268 262 256 254 255 252 250 248 248 248 246 245 243 241 239 237 236 234 233 232 231 231 231 230 231 230 230 233 234 235 235 233 235 235 231 231 230 230 228 224 224 226 225 224 224 223 225 225 221 223 228 223 220 219 214 212 213 210
337 336 335 333 332 331 329 328 326 325 323 321 319 317 315 313 310 306 303 301 299 296 294 291 289 286 284 281 276 269 263 258 255 256 256 253 252 251 249 248 246 245 243 241 239 237 236 235 232 231 231 231 231 230 232 232 231 233 235 236 236 234 235 235 232 231 230 229 229 226 226 226 225 226 225 223 225 226 223 224 225 221 217 216 213 214 215 212
338 337 336 335 333 331 330 329 328 326 324 322 320 318 316 313 311 307 304 302 299 297 295 293 291 288 286 282 274 265 260 257 256 257 256 253 253 252 249 247 246 244 242 240 240 237 236 235 232 231 231 231 231 231 233 233 232 233 235 236 236 235 234 235 233 232 231 229 229 228 226 224 224 226 225 224 227 226 225 223 220 218 216 214 214 217 216 213
338 337 336 335 334 332 331 330 329 327 325 323 321 319 316 314 311 308 305 302 299 297 295 294 292 290 289 284 274 268 263 258 255 255 255 253 253 253 250 248 247 245 242 240 239 237 235 234 233 233 231 230 231 232 233 233 233 233 234 235 236 235 234 235 236 235 233 232 231 230 227 224 224 226 225 225 226 225 225 223 221 218 215 215 218 220 216 214
339 338 337 336 335 334 333 332 330 327 325 323 322 319 317 314 312 309 306 302 300 297 296 294 292 291 290 284 275 270 265 257 253 255 255 253 253 252 250 248 248 245 242 240 239 237 235 234 234 233 231 231 232 233 233 231 231 233 234 235 235 235 235 235 236 235 235 234 232 231 229 227 227 228 228 225 224 224 223 224 223 218 215 217 221 221 216 215
339 339 338 337 336 335 334 333 330 328 326 324 322 320 317 316 313 310 307 303 300 297 296 293 292 291 289 283 276 268 265 258 255 256 255 254 253 252 251 249 248 245 243 242 240 237 235 233 235 233 232 232 232 233 232 229 231 234 234 236 235 236 236 234 234 235 235 234 232 230 230 229 227 228 228 225 224 223 223 224 224 220 217 217 219 220 217 217
340 339 338 337 337 336 335 333 331 329 327 325 323 321 319 317 315 311 308 304 300 297 295 293 292 290 285 281 273 266 266 262 259 259 257 256 254 252 251 249 248 247 245 245 241 238 235 234 235 234 232 233 233 233 232 231 233 235 234 236 236 236 236 234 234 235 234 234 232 230 231 229 227 227 227 225 224 223 223 224 224 222 219 217 218 220 219 221
340 340 339 338 338 337 335 334 332 330 328 326 325 322 321 318 315 312 308 304 300 298 295 293 291 287 283 279 271 267 269 265 262 261 257 255 254 252 251 249 248 247 246 246 242 238 235 235 235 234 233 233 233 233 233 234 234 234 233 235 236 237 236 234 233 233 231 232 231 229 232 231 227 228 226 224 224 224 224 224 224 224 221 218 219 221 221 222
340 340 339 339 338 337 336 334 332 330 329 328 326 324 322 319 316 313 309 304 300 297 295 293 290 287 283 278 273 271 270 267 264 262 258 255 254 253 252 250 248 247 246 245 242 239 236 235 234 234 234 233 232 232 234 235 234 233 233 233 235 237 236 233 231 231 230 232 230 227 232 231 227 227 225 223 224 223 224 224 225 225 224 222 221 221 222 222
341 340 340 340 339 338 336 334 332 331 330 329 327 325 323 320 318 314 310 306 301 297 295 292 289 288 285 279 278 275 271 267 264 262 259 256 255 254 252 250 249 248 247 244 242 240 237 235 234 235 235 233 233 234 235 235 233 233 234 234 234 235 236 233 230 230 230 232 229 227 232 232 228 227 225 223 223 223 223 224 225 225 224 224 222 221 224 224
341 341 341 340 339 338 336 335 333 332 331 329 328 327 324 322 322 319 316 311 305 300 296 292 290 290 288 283 281 278 272 267 266 266 261 257 253 251 252 251 249 248 246 244 243 241 238 236 235 235 235 234 234 234 234 234 233 232 233 234 234 233 236 235 232 229 229 231 227 226 231 231 229 228 224 222 223 223 223 224 224 223 222 221 220 221 223 223
341 341 341 340 340 338 337 335 334 333 332 330 330 329 326 325 326 326 323 320 314 307 301 297 293 292 289 284 284 282 273 269 272 270 265 260 252 249 252 251 250 250 248 245 243 241 238 236 235 234 234 235 233 232 233 235 235 233 232 233 234 234 235 235 234 230 228 229 227 226 230 231 228 227 225 223 222 222 224 224 224 224 223 222 221 221 222 221
342 342 341 341 340 338 337 336 335 334 333 332 332 330 328 328 328 328 327 327 323 314 309 303 296 294 287 282 285 282 275 275 276 274 270 263 252 249 252 253 253 254 251 246 243 240 238 237 236 235 235 235 233 231 233 235 234 234 233 232 234 233 232 232 234 232 228 228 229 228 230 231 229 227 225 223 222 221 223 224 224 224 223 223 223 221 222 221
343 342 342 341 340 338 337 336 336 336 335 334 334 331 329 329 328 327 327 327 324 318 314 309 302 298 289 285 285 279 280 283 281 278 273 265 255 253 255 254 257 257 253 248 244 241 238 239 237 236 237 237 234 232 232 234 232 232 232 232 234 233 231 231 232 232 231 230 229 229 231 231 230 228 225 225 224 222 223 224 223 224 223 222 222 222 222 223
343 343 342 342 340 339 338 337 337 337 336 336 337 334 332 331 328 324 325 326 323 319 315 310 304 299 291 287 285 282 284 284 281 276 272 267 261 260 260 259 259 258 254 250 248 244 238 239 238 236 237 236 234 232 231 232 231 230 231 231 233 233 233 233 231 232 232 232 230 229 231 231 231 229 227 227 225 223 224 225 225 224 223 222 223 222 222 223
344 344 343 342 340 339 339 338 338 338 337 338 339 337 336 335 330 325 327 327 321 317 312 306 299 294 290 288 289 290 289 284 278 273 271 269 265 265 266 263 263 260 255 251 249 248 241 239 238 235 234 233 233 232 230 232 232 231 231 232 233 232 234 234 233 233 232 232 231 230 232 232 231 229 228 228 227 224 224 224 225 225 224 222 222 223 223 223
344 344 343 342 341 340 340 339 339 340 339 340 341 341 339 338 335 329 330 327 320 318 313 309 301 293 292 291 294 298 294 287 279 272 271 270 266 268 268 266 264 261 258 254 252 252 245 241 240 236 234 233 232 231 230 233 233 233 232 233 234 232 233 234 233 234 232 232 232 231 233 233 230 229 228 228 226 225 224 223 224 225 225 224 222 222 223 224
345 344 344 342 341 341 341 341 341 341 341 342 345 345 341 340 337 331 331 328 323 326 324 321 317 306 304 299 295 296 291 288 287 279 272 270 269 268 269 268 263 260 261 259 256 256 251 246 243 238 236 234 233 232 231 232 233 233 233 233 235 234 235 235 234 234 232 232 233 233 235 233 231 230 228 227 226 225 226 225 224 225 225 224 223 223 223 223
345 345 344 343 342 342 342 342 343 343 343 344 346 346 342 339 337 334 333 327 323 329 334 333 330 323 323 315 301 296 288 285 289 287 275 270 271 267 266 268 264 263 264 258 253 254 253 250 244 240 238 236 237 235 231 233 234 234 233 233 235 235 235 235 236 236 235 233 233 235 236 234 232 230 229 227 227 226 227 227 226 225 225 225 224 224 223 222
345 345 345 344 343 344 343 344 345 346 345 344 344 344 342 338 337 336 334 329 324 326 331 330 326 319 318 319 311 300 296 288 284 286 280 272 272 271 268 266 266 267 264 257 252 252 253 252 247 242 241 238 239 239 234 234 237 237 234 233 234 234 234 235 236 238 237 235 234 235 238 236 232 231 230 227 227 227 226 227 227 226 225 225 225 224 224 224
346 346 345 345 345 345 344 345 347 347 345 345 344 343 341 338 336 336 335 334 328 323 326 328 323 314 310 318 312 299 302 296 285 286 284 274 267 270 271 267 266 267 264 260 260 260 258 255 250 247 246 241 239 241 237 235 237 239 237 234 234 233 233 235 236 238 237 236 235 233 235 236 233 232 230 227 226 226 225 225 226 226 225 224 224 224 224 225
346 346 346 346 346 346 346 347 347 347 346 346 345 343 341 338 337 337 336 338 331 323 324 323 320 313 310 314 309 305 308 300 291 292 287 275 265 266 271 271 270 267 265 265 265 265 263 257 251 249 247 242 240 242 240 235 235 239 238 234 232 232 232 234 234 234 234 233 234 231 231 235 235 232 230 227 227 227 225 225 225 225 225 223 223 224 224 225
346 346 346 346 346 347 348 347 347 348 348 346 345 344 341 339 338 337 339 342 333 324 321 318 317 316 313 311 310 309 306 300 299 296 287 276 268 265 268 271 271 269 266 267 268 265 263 261 257 253 248 243 241 242 240 234 232 237 236 231 230 231 231 232 232 232 233 235 236 232 230 235 236 231 228 226 227 227 226 225 224 224 224 223 223 223 224 224
346 346 346 346 346 347 347 347 347 347 347 345 345 344 341 339 339 339 344 341 328 323 322 319 317 316 314 313 310 303 299 300 301 294 289 284 275 268 268 267 266 266 265 262 264 264 260 258 256 254 252 248 244 241 237 232 233 237 235 231 230 230 230 231 231 232 235 237 237 233 229 233 235 230 226 226 227 228 226 225 224 223 224 224 223 223 224 224
346 346 346 346 346 347 348 347 347 346 345 345 344 342 341 342 342 342 346 335 324 324 324 322 318 316 317 315 310 304 301 300 293 288 289 285 277 273 273 271 266 265 265 262 263 265 262 259 255 253 254 251 246 242 235 231 235 237 233 232 232 232 232 231 231 233 235 234 234 232 227 231 235 230 226 226 226 226 225 224 223 223 224 224 224 224 224 224
347 346 346 346 347 349 349 348 346 345 344 344 343 341 343 347 347 347 344 332 326 324 322 322 321 320 323 320 313 309 306 301 294 291 288 280 278 281 279 277 273 268 269 270 267 266 267 267 262 257 254 251 247 245 238 233 234 234 231 232 235 236 235 234 234 233 234 234 233 231 227 230 235 230 225 226 225 224 224 224 224 223 224 224 224 225 224 224
347 347 346 347 348 349 349 348 347 346 344 343 343 343 344 347 351 352 340 332 330 326 326 325 321 322 325 323 316 313 313 309 303 295 288 281 280 284 284 283 281 275 272 271 270 269 268 266 265 263 259 254 251 249 244 238 235 233 231 231 234 237 236 236 236 231 232 234 232 230 228 229 233 229 226 227 226 224 223 223 223 223 223 224 224 225 225 225
347 347 346 347 348 348 348 347 346 347 345 343 344 346 347 347 349 347 336 334 334 329 330 326 320 322 326 325 319 316 318 315 309 299 290 285 280 278 280 280 279 277 273 270 270 270 266 262 263 265 261 255 252 250 247 242 236 232 230 228 229 234 233 233 233 230 231 233 231 229 228 230 233 231 229 230 229 226 225 223 223 223 223 224 224 225 225 225
347 347 347 348 348 347 347 347 347 347 345 345 347 349 356 355 346 341 337 337 332 327 331 328 322 324 327 328 324 323 324 320 315 308 296 290 286 282 281 279 274 273 274 272 271 270 271 270 264 262 261 255 249 247 244 240 235 231 229 226 226 229 230 231 231 231 232 233 232 230 229 232 235 232 229 230 230 228 227 226 225 224 224 225 226 226 225 225
347 348 348 349 348 347 346 347 347 347 346 348 351 353 360 355 343 340 340 336 331 330 334 331 326 326 329 331 329 332 332 325 321 317 306 299 293 289 287 282 274 270 271 271 268 264 269 275 267 260 263 256 247 245 240 236 234 232 230 228 227 227 228 229 230 232 233 234 234 230 228 229 229 227 226 226 228 228 227 227 227 226 226 226 227 227 227 226
348 349 349 350 350 348 347 346 346 348 349 351 355 359 1 352 342 344 342 338 336 334 332 330 329 327 330 335 334 334 332 326 325 321 311 302 295 294 293 286 276 270 266 262 262 262 265 272 271 266 266 256 247 244 236 231 233 233 229 228 228 227 228 231 232 233 233 235 234 229 229 229 227 228 228 227 228 227 226 225 224 225 226 225 225 227 227 227
350 351 352 352 351 350 350 349 348 350 352 355 358 0 359 350 345 347 344 340 339 335 332 331 331 329 332 338 337 336 333 326 325 322 313 305 300 297 294 291 283 266 252 248 257 264 266 275 279 275 270 255 243 239 232 228 231 232 228 227 229 229 230 233 234 234 232 233 233 230 232 233 232 234 231 229 229 227 225 224 222 222 224 224 224 224 226 226
352 353 353 353 352 351 352 351 351 351 354 359 0 358 356 351 349 348 343 340 338 337 336 333 333 331 329 331 333 337 336 328 325 324 318 314 310 304 299 298 287 256 239 242 259 266 265 277 284 276 268 259 244 236 234 230 227 228 228 228 229 229 229 229 231 231 230 233 234 229 229 231 229 230 228 227 227 226 224 224 222 221 220 221 223 223 224 225
351 353 354 354 353 353 352 352 352 353 355 360 360 357 355 352 350 346 342 340 339 341 339 333 332 330 326 325 327 333 334 329 329 327 324 324 327 329 326 316 293 241 229 234 256 268 268 280 286 276 266 266 253 237 238 237 231 230 231 227 225 226 227 225 225 227 227 230 232 229 228 228 225 225 226 226 225 225 225 223 222 221 219 219 221 222 223 223
352 353 354 353 353 354 353 352 353 355 356 360 358 355 353 351 348 342 339 340 341 343 342 337 333 328 326 324 325 332 334 329 330 331 331 338 343 347 350 345 329 235 221 223 249 270 273 278 285 285 275 270 258 240 234 234 233 233 233 229 226 227 228 224 224 226 225 226 229 229 228 226 223 223 225 226 225 224 225 223 221 220 219 219 220 221 222 222
353 354 354 352 353 353 352 352 355 357 357 357 355 352 352 350 346 341 337 338 341 343 342 341 337 331 327 324 326 333 334 328 328 332 335 341 343 344 349 354 347 300 241 235 258 274 275 273 277 283 277 262 254 244 232 229 229 229 229 228 226 225 226 225 225 225 224 224 224 225 227 225 223 221 222 225 225 223 222 222 222 221 220 220 220 220 221 222
353 355 353 352 353 352 352 354 356 357 357 355 352 350 349 348 345 341 338 339 340 338 336 337 337 335 330 328 330 335 335 331 330 331 330 333 339 341 338 325 320 320 290 269 274 274 273 274 271 270 266 257 255 251 240 233 230 229 229 227 225 223 222 223 225 223 223 224 222 224 228 226 223 221 222 224 224 222 221 220 221 223 222 221 221 220 220 221
354 355 353 354 354 353 354 355 356 357 357 353 350 346 344 344 344 343 344 345 343 339 339 339 339 338 335 333 335 338 338 337 335 328 322 323 326 326 325 315 304 312 306 286 277 272 280 284 272 264 264 263 263 260 250 242 236 235 236 232 227 224 220 220 222 221 221 225 226 229 231 228 224 222 222 223 224 223 222 220 220 221 221 220 220 220 220 220
353 353 353 354 354 355 357 355 355 357 355 350 347 345 343 345 347 348 349 350 349 346 344 341 340 343 344 342 343 344 343 342 340 330 320 320 319 312 310 307 302 308 308 295 283 275 284 288 274 270 273 271 267 261 255 250 243 241 242 236 229 225 220 220 220 219 221 222 222 224 227 226 224 219 215 219 223 223 223 224 221 219 218 218 218 219 219 219
351 351 352 353 355 357 359 356 354 354 352 349 348 347 346 347 349 351 351 350 350 350 347 343 343 347 349 349 347 347 350 347 341 333 323 320 321 317 313 303 294 301 301 294 291 281 282 286 278 280 288 281 272 267 258 250 245 245 244 237 230 223 218 218 218 218 220 220 216 217 222 223 218 210 210 217 223 220 218 221 220 216 215 214 214 216 218 218
351 352 352 354 357 359 359 358 357 354 352 351 349 347 349 350 350 350 348 345 346 350 350 346 343 342 345 349 345 342 348 344 334 334 330 324 324 325 324 313 295 293 289 277 275 279 287 290 280 277 287 286 280 277 268 253 243 242 240 233 225 217 212 211 212 213 215 215 213 212 216 219 214 209 217 226 224 218 215 216 217 215 213 213 213 215 215 214
352 353 352 353 356 359 359 359 359 356 353 352 350 349 352 352 349 348 350 350 349 352 352 348 346 346 349 350 346 344 349 343 331 333 333 329 330 332 329 322 306 290 277 263 259 287 300 293 281 276 277 279 280 280 274 260 245 235 229 223 216 210 206 205 206 209 208 209 213 213 214 219 219 218 225 227 220 216 214 213 213 213 213 213 212 213 212 210
352 352 353 353 353 355 356 357 358 355 352 352 351 350 351 351 350 352 355 356 351 351 353 353 356 358 354 350 349 350 351 345 335 333 331 327 331 332 326 324 320 306 286 264 258 297 309 301 291 285 281 281 283 280 269 259 248 230 216 210 205 201 199 200 202 203 199 200 211 212 208 213 221 223 225 223 217 213 210 210 211 212 213 212 210 208 207 205
352 351 353 354 353 353 354 353 353 351 349 350 350 351 350 349 352 355 355 354 351 352 357 359 358 357 353 350 352 353 351 349 346 342 338 333 336 339 335 335 340 344 342 319 292 310 313 309 307 302 297 293 287 276 261 253 244 218 200 195 193 191 192 195 198 196 193 197 205 203 199 210 220 222 218 215 215 213 210 211 213 212 210 207 204 202 201 201
351 351 351 353 353 352 350 348 347 348 348 349 350 352 351 348 350 354 354 354 353 354 359 357 353 354 353 352 355 355 353 353 349 346 346 342 338 343 344 342 348 358 1 346 326 331 323 317 321 318 313 313 302 272 240 218 204 188 181 177 177 181 184 188 193 195 197 205 211 211 215 220 219 214 210 213 216 212 208 210 212 209 205 201 199 199 199 199
351 351 350 351 350 349 348 348 348 349 349 350 351 351 350 347 348 351 353 352 350 352 358 353 348 352 353 352 354 352 348 348 342 340 345 343 340 347 347 337 340 349 353 345 336 336 329 328 336 336 334 343 3 100 129 140 149 157 165 168 168 171 175 181 188 192 197 209 216 216 218 219 212 202 203 209 212 207 204 206 207 205 202 198 197 197 198 199
350 350 350 350 349 349 350 350 350 350 350 351 353 351 349 347 348 349 349 348 345 346 351 350 347 350 353 351 349 345 342 343 336 332 335 335 338 349 346 337 344 346 343 345 345 340 334 337 344 350 355 5 44 103 120 126 127 137 160 167 167 168 170 175 182 184 193 208 213 210 212 212 203 193 194 201 203 200 200 203 202 199 198 197 195 195 197 197
349 350 351 350 349 350 352 351 351 351 349 349 351 351 347 342 344 347 349 352 351 342 344 348 347 349 352 349 346 342 338 335 327 323 326 327 329 335 330 321 334 345 345 346 348 348 346 344 348 359 10 19 59 109 122 123 120 136 162 165 164 168 170 172 179 188 198 205 203 203 205 203 197 194 198 202 200 196 196 198 198 196 195 195 195 194 193 193